Location: Bad Dürkheim
(49.4618°N, 8.1724°E)
Time: 04:14:13
(UTC+00:00)

Helios 1B rocket - Pass Details

Date: 14 June 2025
Orbit: 495 x 502 km, 98.2° (Epoch: 12 July)

Event Time Altitude Azimuth Distance (km) Brightness Sun altitude
Rises 20:12:30 0° 183° (S) 2,586 5.3 -5.3°
Reaches altitude 10° 20:14:40 10° 191° (SSW) 1,709 4.5 -5.5°
Maximum altitude 20:18:07 38° 261° (W) 785 3.5 -5.9°
Drops below altitude 10° 20:21:37 10° 331° (NNW) 1,728 6.5 -6.3°
Sets 20:23:49 0° 340° (NNW) 2,619 7.3 -6.6°
